www.pogodaiklimat.ru

Погода и климат >> Архив погоды >> Канада >> Timmins


ПОГОДА в Timmins

  • Прогноз погоды в Timmins
  • Монитор погоды в Timmins
  • Климат города

АРХИВ ПОГОДЫ в Timmins

Время (UTC), дата Ветер
(напр.,м/с)
 
Видим.   Явления Облачность Т
(С)
Тd
(С)
f
(%)
Тe
(С)
Тes
(С)
Комфортность P
(гПа)
Po
(гПа)
Тmin
(С)
Tmax
(С)
R
(мм)
R24
(мм)
S
(см)
12 16.06 Ю 2 24 км 8/8
[Sc]
+17.3 +14.3 83 +18 +18 1005.7 970.8 +14.5 +21.0
15 16.06 Ю 3 24 км 8/8 600 м
[]
+22.6 +15.9 66 +27 +29 душно 1005.2 970.4
18 16.06 ЮЗ 5 24 км 9/5 2000 м
[Cu med, cong Ac trans Ci fib]
+25.4 +14.6 51 +28 +31 жарко 1003.4 968.7 +14.5 +25.7
21 16.06 ЮЗ 3 24 км 8/8 1500 м
[]
+26.9 +13.8 44 +29 +31 жарко 1002.3 967.6
00 17.06 ЮЗ 4 24 км 8/3 2000 м
[Cu med, cong Ci]
+25.1 +9.0 36 +26 +26 жарко 1002.7 968.0 +14.5 +27.1
03 17.06 ЮЗ 4 24 км 10/0 2000 м
[]
+21.6 +10.8 50 +23 +23 комфорт 1003.1 968.4
06 17.06 Ю 2 24 км 10/0
[Ac As]
+18.2 +11.2 64 +19 +19 1004.0 969.3 +14.5 +27.1 23
09 17.06 Ю 2 24 км 5/0
[]
+14.3 +11.8 85 +14 +14 1004.3 969.5
12 17.06 Ю 2 24 км 10/9 1500 м
[Sc Ac As Ci]
+15.1 +13.3 89 +15 +15 1005.1 970.3 +13.1 +27.1
15 17.06 ЮВ 2 12 км 10/10 1500 м
[]
+16.4 +15.2 93 +16 +16 1003.4 968.6
18 17.06 З 2 16 км слабый ливневой дождь 10/10 100 м
[Sc]
+16.1 +15.2 94 +16 +16 1002.5 967.6 +13.1 +18.1
21 17.06 Ю 3 24 км 10/10 300 м
[]
+19.3 +17.8 91 +22 +22 комфорт 1001.4 966.5
00 18.06 ЮЗ 1 24 км {ливн. осадки} 8/1 600 м
[Cu med, cong Ac inh Ci sp]
+20.0 +16.2 79 +24 +24 комфорт 1002.0 967.1 +13.1 +21.1
03 18.06 Ю 2 24 км 6/0
[]
+15.8 +15.3 97 +16 +16 1002.6 967.6
06 18.06 Ю 2 24 км местами туман поземный 1/0
[Ci fib]
+13.8 +13.5 98 +13 +13 1002.4 967.3 +13.1 +21.1 20
09 18.06 Ю 2 1600 м 5/0
[]
+12.7 +12.4 98 +12 +12 1001.7 966.7
12 18.06 С 1 3200 м в посл. час туман 9/0
[Ac cuf]
+14.7 +14.4 98 +16 +17 1001.2 966.3 +12.0 +21.1
15 18.06 В 2 8000 м 10/10 <50 м
[]
+17.0 +16.6 97 +17 +17 999.1 964.2
18 18.06 СВ 3 16 км слабый дождь 10/10 200 м
[Sc]
+19.6 +17.5 88 +22 +22 комфорт 997.2 962.4 +12.0 +20.2
21 18.06 В 3 8000 м 9/9 100 м
[]
+19.7 +18.6 93 +23 +23 комфорт 994.6 959.9
00 19.06 СВ 5 12 км гроза, ливневой дождь 10/10 100 м
[Cb calv]
+17.0 +16.2 95 +16 +16 993.0 958.3 +12.0 +20.6
03 19.06 С 1 8000 м 8/8 100 м
[]
+15.1 +14.7 97 +16 +16 992.4 957.8
06 19.06 Ю 2 24 км слабый ливневой дождь {гроза} 8/8 2000 м
[Cu med, cong]
+13.5 +12.8 96 +13 +13 992.0 957.4 +12.0 +20.6 21
09 19.06 ЮЗ 2 8000 м 9/9 300 м
[]
+13.2 +12.7 97 +12 +12 993.3 958.6
12 19.06 З 5 3200 м слабая морось {ливн. осадки, дождь} 10/10 100 м
[St]
+12.7 +12.0 96 +10 +10 997.2 962.3 +12.3 +20.6
15 19.06 З 3 4800 м 10/10 200 м
[]
+13.5 +12.6 94 +12 +12 999.8 964.8 +12.3 +16.3
18 19.06 З 5 4800 м слабый дождь {морось} 10/0 300 м
[Ac As]
+13.1 +12.2 94 +11 +14 1002.5 967.4 +12.3 +13.8
21 19.06 З 4 4800 м 10/10 200 м
[]
+14.3 +13.2 93 +13 +13 1003.8 968.7
00 20.06 З 3 24 км слабый дождь 9/9 200 м
[Frnb]
+14.4 +13.0 91 +13 +13 1004.5 969.4 +12.3 +15.0
03 20.06 З 3 24 км 10/10 300 м
[]
+13.4 +12.6 95 +12 +12 1005.0 969.8
06 20.06 ЮЗ 2 24 км {ливн. осадки} 10/10 100 м
[Sc]
+12.8 +12.1 96 +12 +12 1004.6 969.4 +12.3 +15.0 18
09 20.06 З 3 8000 м 10/10 200 м
[]
+13.0 +12.4 96 +12 +12 1003.6 968.5
12 20.06 З 3 4000 м слабая морось {дождь} 10/10 100 м
[St]
+12.7 +12.1 96 +11 +11 1004.4 969.3 +12.6 +15.0
15 20.06 З 3 12 км 10/10 200 м
[]
+13.7 +12.0 89 +12 +12 1005.2 970.0
18 20.06 З 5 24 км слабый дождь {морось} 10/10 300 м
[Sc Ac As]
+14.7 +11.6 82 +13 +13 1005.1 970.0 +12.6 +16.9
21 20.06 СЗ 6 24 км 9/9 600 м
[]
+15.1 +10.7 75 +14 +14 1006.2 971.0
00 21.06 СЗ 3 24 км слабый дождь 10/10 200 м
[Sc]
+11.2 +10.2 94 +9 +9 1008.0 972.6 +11.2 +16.9
03 21.06 ЮЗ 2 24 км 10/10 200 м
[]
+11.0 +10.4 96 +10 +10 1009.0 973.6
06 21.06 З 3 24 км {дождь} 10/0
[Ac As]
+10.6 +9.7 94 +9 +9 1009.1 973.7 +10.3 +16.9 19
09 21.06 З 2 24 км 8/0
[]
+9.0 +8.4 96 +7 +7 1009.8 974.4
12 21.06 З 3 24 км 6/0
[Ac As Ci fib]
+11.0 +9.4 90 +9 +11 1011.5 976.0 +8.1 +16.9
15 21.06 З 3 24 км 5/5 1000 м
[]
+17.6 +8.6 56 +18 +23 1012.0 976.6
18 21.06 З 4 24 км 8/5 1500 м
[Cu hum Ci fib]
+19.6 +6.0 41 +20 +26 1011.8 976.5 +8.1 +20.0
21 21.06 СЗ 4 24 км 6/0 2000 м
[]
+20.1 +5.6 39 +21 +26 комфорт 1011.5 976.2
00 22.06 З 2 24 км 6/4 2000 м
[Cu hum Ci]
+20.0 +7.1 43 +22 +22 комфорт 1011.1 975.9 +8.1 +21.5
03 22.06 С 1 24 км 4/0
[]
+10.6 +9.0 90 +11 +11 1011.8 976.4
06 22.06 Ю 2 24 км 4/0 2000 м
[Ac As Ci fib]
+8.1 +7.6 97 +6 +6 1011.4 976.0 +7.3 +21.5 18
09 22.06 Ю 2 24 км 10/0
[]
+10.2 +9.1 93 +9 +9 1010.0 974.8
12 22.06 Ю 2 24 км 9/0
[Ac As]
+11.8 +10.6 92 +11 +12 1009.0 973.9 +7.3 +21.5
15 22.06 Ю 4 24 км 10/0
[]
+16.1 +11.7 75 +15 +20 1008.0 972.7
18 22.06 Ю 5 24 км 9/8 1500 м
[Cu hum Ac und]
+22.6 +11.6 50 +25 +26 комфорт 1004.7 969.7 +7.3 +22.9
21 22.06 Ю 5 24 км 10/10 1000 м
[]
+21.1 +14.6 66 +24 +24 комфорт 1003.4 968.3
00 23.06 Ю 5 24 км 9/6 600 м
[Sc Ac und]
+19.2 +15.4 79 +20 +21 1002.2 967.2 +8.1 +23.1
03 23.06 ЮЗ 2 24 км 6/6 600 м
[]
+16.6 +15.1 91 +17 +17 1002.4 967.4
06 23.06 З 3 24 км 4/0
[Ac trans]
+14.9 +13.9 94 +14 +14 1001.9 967.1 +8.1 +23.1 19
09 23.06 Ю 2 24 км 3/0
[]
+12.6 +12.2 97 +12 +12 1001.0 966.1

 

Местоположение метеостанции Timmins (Канада): широта 48.57 долгота -81.36 высота над уровнем моря 295 м.

В архиве по умолчанию представлена погода в Timmins за последнюю неделю. Архивные данные за месяц целиком и за предыдущие месяцы, начиная с января 2011 года, Вы можете получить, выбрав интересующий диапазон дат из раскрывающегося списка и нажав кнопку "Ввод!".

Внимание! Время в таблицах - всемирное. Для получения местного времени необходимо прибавить поправку, которая в Timmins равна -5 ч.

Смотрите также архив погоды в соседних городах и на ближайших метеорологических станциях:

Погода в Timmins Climate (Канада) (3 км)
Погода в Kirkland Lake (Канада) (111 км)
Погода в Kapuskasing (Канада) (122 км)
Погода в Kapuskasing (Канада) (122 км)
Погода в Kapuskasing Airport (Канада) (124 км)
Погода в Earlton (Канада) (148 км)
Погода в Earlton Climate (Канада) (151 км)
Погода в Chapleau A (Канада) (169 км)
Погода в Rouyn (Канада) (176 км)
Погода в Barrage Angliers (Канада) (195 км)

Пояснения к столбцам:

Ветер - указаны скорость ветра в м/с - средняя за 10 мин, порывы в срок и между сроками (в фигурных скобках) и направление, откуда дует ветер: С - северный, СВ - северо-восточный, В - восточный, ЮВ - юго-восточный, Ю - южный, ЮЗ - юго-западный, З - западный, СЗ - северо-западный.
Видимость - горизонтальная дальность видимости в метрах или километрах. При видимости от 1 до 10 км при отсутствии осадков обычно наблюдается дымка, при ухудшении видимости до 1 км и менее - туман. В сухую погоду видимость может ухудшаться дымом, пылью или мглою.
Явления - указаны атмосферные явления, наблюдавшиеся в срок или в последний час перед сроком; фигурными скобками обозначены явления, наблюдавшиеся между сроками (за 1-3 часа до срока); квадратными скобками обозначены град или гололедные отложения с указанием их диаметра в мм.
Облачность - указаны через наклонную черту общая и нижняя облачность в баллах и высота нижней границы облаков в метрах; квадратными скобками обозначены формы облаков: Ci - перистые, Cs - перисто-слоистые, Cc - перисто-кучевые, Ac - высококучевые, As - высокослоистые, Sc - слоисто-кучевые, Ns - слоисто-дождевые, Cu - кучевые, Cb - кучево-дождевые. Подробнее классификацию облаков см. в Атласе облаков (PDF).
T - Температура воздуха - температура, измеренная на высоте 2 м над землей.
Td - Температура точки росы - температура, при понижении до которой содержащийся в воздухе водяной пар достигнет насыщения.
f - Относительная влажность воздуха - влажноcть воздуха, измеренная на высоте 2 м над землей.
Te - Эффективная температура - температура, которую ощущает одетый по сезону человек в тени. Характеристика душности погоды. При расчете учитывается влияние влажности воздуха и скорости ветра на теплоощущения человека.
Tes - Эффективная температура на солнце - температура, которую ощущает человек, с поправкой на солнечный нагрев. Характеристика знойности погоды. Зависит от высоты солнца над горизонтом, облачности и скорости ветра. Ночью, в пасмурную погоду, а также при ветре 12 м/с и более поправка равна нулю.
P - Атмосферное давление - приведенное к уровню моря атмосферное давление.
Po - Атмосферное давление - измеренное на уровне метеостанции атмосферное давление.
Tmin - Минимальная температура - минимум температуры воздуха на высоте 2 м над землей.
Tmax - Максимальная температура - максимум температуры воздуха на высоте 2 м над землей.
R - Количество осадков - Количество выпавших осадков за период времени, мм. При наведении курсора мыши на число - период времени, за который выпало указанное количество осадков.
R24 - Количество осадков - Количество выпавших осадков за 24 часа, мм.
S - Снежный покров - Высота снежного покрова, см. При наведении курсора мыши на число - состояние снежного покрова и степень покрытия местности в баллах.